Regional Weather Roundup
Issued by NWS

Home | Current Version | Previous Version | Text Only | Print | Product List | Glossary On
Versions: 1 2 3 4 5 6 7 8 9 10 11 12 13 14 15 16 17 18 19 20 21 22 23 24 25 26 27 28 29 30 31 32 33 34 35 36 37 38 39 40 41 42 43 44 45 46
000
ASUS45 KCYS 270710
RWRWY

WYOMING REGIONAL WEATHER ROUNDUP
NATIONAL WEATHER SERVICE CHEYENNE WY
1200 AM MST SAT DEC 27 2014

NOTE:  "FAIR" INDICATES FEW OR NO CLOUDS BELOW 12,000 FEET
WITH NO SIGNIFICANT WEATHER AND/OR OBSTRUCTIONS TO VISIBILITY.

WYZ001-270800-
YELLOWSTONE NATIONAL PARK

CITY           SKY/WX    TMP DP  RH WIND       PRES   REMARKS
LK YELLOWSTONE   N/A     -7 -10  87 CALM      30.03F
W YELLOWSTONE  NOT AVBL

$$
WYZ002>013-054>058-071-098>099-270800-
NORTHERN WYOMING

CITY           SKY/WX    TMP DP  RH WIND       PRES   REMARKS
JACKSON        MOCLDY     3   1  92 NW3       30.09S
CODY           MOCLDY    12  12 100 CALM      30.08F
GREYBULL       CLOUDY     5   4  95 SE3       30.17S
WORLAND        CLOUDY     6   3  87 CALM      30.15S
SHERIDAN       FAIR      11   7  84 S6        30.11S WCI   1
BUFFALO        FAIR      11   8  88 CALM      30.07S
GILLETTE       CLOUDY    16  12  84 NW6       30.08S WCI   7
HULETT           N/A    N/A N/A N/A MISG        N/A
NEWCASTLE      FAIR       9   5  85 CALM      30.10S

$$
WYZ014>020-022>026-101>103-270800-
CENTRAL WYOMING

CITY           SKY/WX    TMP DP  RH WIND       PRES   REMARKS
BIG PINEY      CLOUDY     8   4  83 CALM      30.07R
PINEDALE       FLURRIES   5   3  92 W3        30.07R
DUBOIS         NOT AVBL
LANDER         CLOUDY    12   7  80 CALM      30.08R
RIVERTON       CLOUDY    13   8  81 SW6       30.10R WCI   4
CASPER         FAIR       5   2  87 W9        30.09R WCI  -9
DOUGLAS        MOCLDY     7   3  84 NW7       30.09S WCI  -5

$$
WYZ021-027>030-104>119-270800-
SOUTHERN WYOMING

CITY           SKY/WX    TMP DP  RH WIND       PRES   REMARKS
EVANSTON       CLOUDY     8   4  83 SW7       30.10R WCI  -3
FORT BRIDGER   PTSUNNY   10   6  84 W12       30.11R WCI  -5
ROCK SPRINGS   LGT SNOW   9   7  92 SW7       30.08R FOG     WCI  -2
DIXON          LGT SNOW   1  -3  84 CALM      30.10R
RAWLINS        CLOUDY    -5  -9  83 N3        30.04R
SARATOGA       FLURRIES   3   1  92 S7        30.04R WCI  -9
LARAMIE        MOCLDY    -3  -5  90 W3        29.99S
CHEYENNE       CLOUDY    11   4  73 W12       30.01S WCI  -3
TORRINGTON     FAIR      12  10  92 W5        30.10S WCI   4
PINE BLUFFS    FAIR       1   0  92 SW9       30.07F WCI -14

$$


USA.gov is the U.S. government's official web portal to all federal, state and local government web resources and services.